Location: Aldenham
(51.6667°N, 0.3500°W)
Time: 08:01:10
(UTC+00:00)

Meteor 2-3 Rocket - Pass Details

Date: 18 November 2025
Orbit: 841 x 884 km, 81.2° (Epoch: 12 December)

Event Time Altitude Azimuth Distance (km) Brightness Sun altitude
Rises 18:28:19 0° 347° (NNW) 3,470 7.0 -21.5°
Reaches altitude 10° 18:30:47 10° 349° (NNW) 2,522 6.2 -21.9°
Maximum altitude 18:36:31 81° 76° (ENE) 877 3.6 -22.8°
Drops below altitude 10° 18:42:09 10° 165° (SSE) 2,475 6.0 -23.6°
Sets 18:44:33 0° 166° (SSE) 3,401 6.7 -24.0°
